Starlink 30288

operational
NORAD ID: 57698 Int'l Des: 2023-129 Owner: SPXS Country: US Constellation: starlink
LEOCIRCULAR

关于 Starlink 30288

正在加载描述...

实时位置

正在加载3D地球...

即将过境

高度历史

Altitude vs Time

uPlot chart will show altitude changes over time

两行轨道根数

1 57698U 23129A 25303.50182635 .00001477 00000-0 12435-3 0 9992
2 57698 43.0036 107.4488 0001258 269.1675 90.9023 15.02540518121072
Epoch: Oct 30, 2025 • Age: 32 hours

当前状态

高度 562.8 km
速度 7.59 km/s
星下点 41.96°N, 171.21°W
发射日期 Aug 27, 2023
运行时间 2.1 years
类型 internet

技术详情

分类 Payload
质量 730.00 kg
干质量 700.00 kg
总质量 730.00 kg
长度 0.30 m
直径 4.10 m
跨度 29.00 m
形状 Box + pan
制造商 SPXS
平台类型 Starlink V2M
阶段状态 In Orbit
所有者/国家 SPXS/US

大型星座

Loading constellations...